Regional Weather Roundup
Issued by NWS San Diego, CA

Home | Current Version | Previous Version | Text Only | Print | Product List | Glossary On
Versions: 1 2 3 4 5 6 7 8 9 10 11 12 13 14 15 16 17 18 19 20 21 22 23 24 25 26 27 28 29 30 31 32 33 34 35 36 37 38 39 40 41 42 43 44 45 46 47 48 49
000
ASUS46 KSGX 301111
RWRSGX

SAN DIEGO HOURLY WEATHER ROUNDUP
NATIONAL WEATHER SERVICE SAN DIEGO CA
400 AM PDT SAT JUL 30 2016

NOTE: "FAIR" INDICATES FEW OR NO CLOUDS BELOW 12,000 FEET WITH NO
SIGNIFICANT WEATHER AND/OR OBSTRUCTIONS TO VISIBILITY.

CAZ042-043-060-061-PZZ750-775-301200-

GREATER SAN DIEGO AREA

CITY           SKY/WX    TMP DP  RH WIND       PRES   REMARKS
LINDBERGH FLD  PTCLDY    68  64  87 S3        29.82F
NATIONAL CITY    N/A     70  66  86 CALM      29.81F
CHULA VISTA      N/A     67  65  91 W2        29.73F
IMPERIAL BEACH CLEAR     68  62  81 SW3       29.80F
BROWN FIELD    CLEAR     67  63  87 CALM      29.81S
MIRAMAR MCAS   PTCLDY    67  61  81 CALM      29.80F
MONTGOMERY FLD CLEAR     69  62  78 CALM      29.81F

$$

NORTH SAN DIEGO COUNTY

CITY           SKY/WX    TMP DP  RH WIND       PRES   REMARKS
CAMP PENDLETON CLEAR     67  64  90 CALM      29.79F FOG
OCEANSIDE AP   CLEAR     67  62  84 CALM      29.79F
OCEANSIDE HBR    N/A     69  66  89 CALM      29.82F
VISTA            N/A     67  62  84 CALM      29.78F
CARLSBAD       CLEAR     69  65  86 CALM      29.79F
DEL MAR          N/A     66  65  95 CALM      29.82F
LA JOLLA SCRIP   N/A     68  65  91 NE3       29.79F
FALLBROOK        N/A     67  66  97 CALM      29.79S
ESCONDIDO        N/A     70  65  85 CALM      29.80F
SAN MARCOS       N/A     67  59  75 CALM      29.83F
POWAY            N/A     67  62  85 CALM      29.80S

$$

EAST SAN DIEGO COUNTY

CITY           SKY/WX    TMP DP  RH WIND       PRES   REMARKS
RAMONA         CLEAR     67  60  78 CALM      29.83F
SANTEE LAKES     N/A     68  64  87 SW5       29.78R
LA MESA          N/A     66  63  90 CALM      29.72F
JAMUL            N/A     65  62  91 CALM      29.79S
DESCANSO N       N/A     78  65  64 NE12      29.67S
MT. LAGUNA OBS   N/A     67  58  72 NE14      29.72S
CAMPO            N/A     72  54  53 W3        29.87F

$$

ORANGE COUNTY AND THE LOS ANGELES BASIN

CITY           SKY/WX    TMP DP  RH WIND       PRES   REMARKS
JOHN WAYNE AP  CLEAR     70  65  84 SE6       29.82R
LAKE FOREST FR   N/A     67  62  84 CALM      29.68R
HUNTINGTON BCH   N/A     70  67  91 CALM      29.83R
LOS ALAMITOS   FAIR      70  67  88 E5        29.81R
FULLERTON      CLEAR     73  66  78 E6        29.80R
LONG BEACH     PTCLDY    71  66  84 CALM      29.79S
L.A. AP        CLEAR     70  64  81 CALM      29.80S
L.A. DOWNTOWN  CLEAR     70  59  68 CALM      29.79S

$$

THE INLAND EMPIRE

CITY           SKY/WX    TMP DP  RH WIND       PRES   REMARKS
CORONA         CLEAR     69  65  86 NE5       29.84R
CHINO          CLEAR     70  64  81 E3        29.85R
ONTARIO        CLEAR     71  62  73 S3        29.84R
SAN BERNARDINO FAIR      75  61  61 W5        29.84S
RIVERSIDE AP   CLEAR     72  64  76 W5        29.83R
MORENO VALLEY    N/A     74  64  72 CALM      27.96S
MARCH ARB      CLEAR     73  60  64 SW5       29.85F
HORSETHIEF CYN   N/A     71  60  67 CALM      29.83R
PERRIS           N/A     72  61  68 SE3       29.86R
HEMET EAST       N/A     73  56  55 CALM      29.67F
FRENCH VALLEY  FAIR      72  57  60 CALM      29.84F
TEMECULA         N/A     70  64  79 NE1       29.79S

$$

SAN BERNARDINO AND RIVERSIDE COUNTY MOUNTAINS

CITY           SKY/WX    TMP DP  RH WIND       PRES   REMARKS
BIG BEAR AP    CLEAR     54  43  66 CALM      30.22S
PINE COVE        N/A     71  49  45 CALM      29.68F

$$

SOUTHERN DESERT INCLUDING THE COACHELLA VALLEY

CITY           SKY/WX    TMP DP  RH WIND       PRES   REMARKS
PALM SPRINGS   HAZE      91  68  46 E14       29.83S VSB 1/2 HX  95
THOUSAND PALMS   N/A     91  69  47 SE13      29.79R HX  95
PALM DESERT      N/A     91  68  46 S3          N/A  HX  95
THERMAL        HAZE      92  66  42 SE10G18   29.77R VSB 3/4
BLYTHE         PTCLDY    89  64  43 SW8       29.80R
IMPERIAL AP    PTCLDY    92  68  45 S28G36    29.75R HX  96
EL CENTRO NAS  CLEAR     91  66  43 S20       29.77S
YUMA AZ        MOCLDY    88  62  41 S24       29.76R

$$

UPPER DESERT

CITY           SKY/WX    TMP DP  RH WIND       PRES   REMARKS
VICTORVILLE AP CLEAR     81  46  30 CALM      29.88S
HESPERIA         N/A     78  53  41 W3        29.77S
PALMDALE       CLEAR     82  48  30 SW9       29.85F
LANCASTER      CLEAR     82  46  28 W10       29.82F
EDWARDS AFB    CLEAR     77  47  34 SW10      29.80F
DAGGETT        MOCLDY    91  49  23 E10G25    29.82R
29 PALMS N     PTCLDY    86  63  45 SW16      29.94R
NEEDLES        CLOUDY    82  71  69 SE9       29.85F

$$

REGIONAL REPORTS

CITY           SKY/WX    TMP DP  RH WIND       PRES   REMARKS
SANTA BARBARA  MOCLDY    61  61 100 SE3       29.79S
SANDBERG       CLEAR     79  39  23 NW9       30.02F
LAS VEGAS NV   MOCLDY    87  60  40 S14G26    29.82R BLWGDUST
PHOENIX AZ     CLOUDY    83  65  54 CALM      29.81R
TIJUANA        PTCLDY    66  61  82 CALM      29.83F
ENSENADA NW      N/A     69  32  25 CALM      29.80R

$$

OFFSHORE ISLANDS

CITY           SKY/WX    TMP DP  RH WIND       PRES   REMARKS
CATALINA ARPT  PTCLDY    63  62  97 E5        29.84S FOG
SAN NICOLAS IS PTCLDY    68  32  26 W7        29.79F

$$

MARINE AND OFFSHORE BUOY REPORTS

STATION/POSITION SKY/WX   TEMP    WIND        PRES    SWELL
                          AIR SEA DIR/SP/G            HT/PER/DIR
                          (F)     (DEG/KT/KT) (MB)    (FT/S/D)
TANNER BANKS               61 65  290/ 12/ 14 1009.1F   3/310/10
S CLEMENTE BASIN           66 69  320/  2/  6 1009.5R   3/280/ 6
SAN NICOLAS IS.               63                N/A     2/300/11
SO. S. ROSA ISLA           60 67  310/ 12/ 16 1009.1F   5/310/10
W. S. BARBARA CH           57 60  310/ 14/ 17 1009.1R   3/320/10
M. S. BARBARA CH                  220/  8/ 12 1009.4F
S. MONICA BASIN            68 72  170/  4/  6 1008.6F
S PEDRO CHANNEL               71                N/A
OCEANSIDE OFFSHR              77                N/A     2/210/14
TORREY PINES OTR                                N/A     2/200/11
LA JOLLA 1                 69 75  120/  3/  5 1009.4R
SAN DIEGO BAY                 79              1009.5S
POINT LOMA SOUTH              74                N/A     2/220/15

$$




USA.gov is the U.S. government's official web portal to all federal, state and local government web resources and services.